sat.trackr.live / text

‹ back to catalog

STARLINK-37512

NORAD 69035 · 2026-101L

PAYLOAD ACTIVE UNKNOWN

§ Identity

Operator
Country
US
Launch date
2026-05-06
Launch site
AFWTR
Launch vehicle
Mass (kg)
RCS (m²)

Purposes: comms

External: N2YO · Heavens-Above · Gunter

§ Orbital elements

Epoch: 2026-05-25T05:07:25.098816Z

Period
91.91 min
Inclination
97.2851°
Eccentricity
0.0001239
Mean motion
15.66773268 rev/d
Perigee alt
367.3 km
Apogee alt
369.0 km
Semi-major
6,746.3 km
B*
-8.3901e-3
RAAN
359.9626°
Arg perigee
75.0121°
Mean anomaly
285.1277°
Rev number
302

§ Raw data

STARLINK-375121 69035U 26101L   26145.21348494 -.00800822  00000+0 -83901-2 0  99902 69035  97.2851 359.9626 0001239  75.0121 285.1277 15.66773268  3026

JSON: /api/v1/satellites/69035 · /tle

For live sub-satellite position, see the globe view (requires WebGL).

§ Visibility from observer

Set your observer location to see the next 7 days of passes ≥ 10°. The values pass through the URL so the page stays shareable.

No JS? Fill the form by hand. The geolocation button needs JavaScript.